Weather History for PAIL - January, 2013

Change the Weather History Date:

Sunday, January 27, 2013

  Actual Average Record
Temperature  
Mean Temperature -5 °F -  
Max Temperature 1 °F 23 °F 57 °F (2014)
Min Temperature -11 °F 9 °F -37 °F (1989)
Degree Days  
Heating Degree Days 70    
Moisture  
Dew Point -18 °F    
Average Humidity 53    
Maximum Humidity 64    
Minimum Humidity 25    
Precipitation  
Precipitation 0.00 in - - ()
Sea Level Pressure  
Sea Level Pressure 30.18 in    
Wind  
Wind Speed 8 mph (North)    
Max Wind Speed 17 mph    
Max Gust Speed 22 mph    
Visibility 10 miles    
Events      
Averages and records for this station are not official NWS values.
T = Trace of Precipitation, MM = Missing Value Source: NWS Daily Summary

Daily Weather History Graph

Daily Weather History Graph

Search for Another Location

Airport or City:

Trip Planner

Search our weather history database for the weather conditions in past years. The results will help you decide how hot, cold, wet, or windy it might be!

Date:

Astronomy

Jan. 27, 2013 Rise Set
Actual Time 9:42 AM AKST 5:23 PM AKST
Civil Twilight 8:53 AM AKST 6:11 PM AKST
Nautical Twilight 8:02 AM AKST 7:03 PM AKST
Astronomical Twilight 7:14 AM AKST 7:51 PM AKST
Moon 7:00 PM AKST (1/27) 9:14 AM AKST (1/27)
Length of Visible Light 9h 18m
Length of Day
7h 41m
Full, 100% of the Moon is Illuminated
Jan 27
Full
Feb 3
Last Quarter
Feb 9
New
Feb 17
First Quarter
Feb 25
Full

Hourly Weather History & Observations

Time (AKST) Temp. Windchill Dew Point Humidity Pressure Visibility Wind Dir Wind Speed Gust Speed Precip Events Conditions
12:53 AM -4.0 °F - -16.1 °F 56% 30.12 in 10.0 mi North - - N/A   Clear
1:53 AM -4.0 °F - -16.1 °F 56% 30.13 in 10.0 mi North - - N/A   Clear
3:53 AM -5.1 °F - -17.0 °F 57% 30.15 in 10.0 mi North - - N/A   Clear
4:53 AM -4.0 °F - -17.0 °F 54% 30.15 in - North - - N/A   Unknown
5:53 AM -5.1 °F - -17.0 °F 57% 30.16 in 10.0 mi Calm Calm - N/A   Clear
6:53 AM -7.1 °F -19.9 °F -17.0 °F 62% 30.16 in 10.0 mi WSW 5.8 mph - N/A   Clear
7:53 AM -6.0 °F -14.7 °F -17.0 °F 59% 30.16 in 10.0 mi West 3.5 mph - N/A   Clear
8:53 AM -7.1 °F -23.9 °F -17.0 °F 62% 30.17 in 10.0 mi NNW 9.2 mph - N/A   Clear
9:53 AM -6.0 °F -22.6 °F -16.1 °F 62% 30.19 in 10.0 mi North 9.2 mph - N/A   Clear
10:53 AM -5.1 °F -19.1 °F -17.0 °F 57% 30.20 in 10.0 mi NW 6.9 mph - N/A   Partly Cloudy
11:53 AM -0.9 °F -15.3 °F -16.1 °F 49% 30.20 in 10.0 mi NE 8.1 mph - N/A   Clear
12:53 PM -2.9 °F -17.7 °F -17.0 °F 51% 30.21 in 10.0 mi NE 8.1 mph - N/A   Partly Cloudy
1:53 PM -0.9 °F -17.4 °F -17.0 °F 47% 30.20 in 10.0 mi North 10.4 mph - N/A   Scattered Clouds
2:53 PM -0.0 °F -16.3 °F -18.0 °F 43% 30.20 in 10.0 mi North 10.4 mph - N/A   Partly Cloudy
3:53 PM -2.0 °F -18.7 °F -18.0 °F 47% 30.20 in 10.0 mi North 10.4 mph - N/A   Partly Cloudy
4:53 PM -5.1 °F -24.3 °F -18.9 °F 51% 30.20 in 10.0 mi North 12.7 mph - N/A   Partly Cloudy
5:53 PM -6.0 °F -27.7 °F -20.0 °F 51% 30.19 in 10.0 mi NNW 16.1 mph - N/A   Partly Cloudy
6:53 PM -7.1 °F -25.9 °F -20.0 °F 53% 30.20 in 10.0 mi NNW 11.5 mph - N/A   Partly Cloudy
7:53 PM -9.0 °F -31.7 °F -20.9 °F 56% 30.19 in 10.0 mi NNE 16.1 mph 20.7 mph N/A   Clear
8:53 PM -9.9 °F -32.8 °F -20.9 °F 59% 30.20 in 10.0 mi North 16.1 mph - N/A   Clear
9:53 PM -11.0 °F -32.7 °F -20.9 °F 62% 30.21 in 10.0 mi North 13.8 mph 19.6 mph N/A   Partly Cloudy
10:53 PM -11.0 °F -33.5 °F -20.9 °F 62% 30.19 in 10.0 mi North 15.0 mph 21.9 mph N/A   Clear
11:53 PM -11.0 °F -34.9 °F -20.0 °F 64% 30.18 in 10.0 mi North 17.3 mph - N/A   Clear